[[{"header":{"parameterUnit":"m.s-1","parameterCategory":1,"la1":30.2991,"la2":30.254,"lo1":-89.0895,"lo2":-89.0444,"dy":0.0017,"dx":0.0017,"nx":28,"ny":28,"refTime":"2023-11-12T03:00:00:Z","depth":0,"parameterNumber":2,"parameterNumberName":"U-component_of_WINDS"},"data":[0,0,0,0,0,0,0,0,0,0,0,0,0,0,0,0,0,0,0,0,0,0,0,0,0,0,0,0,0,0,0,0,0,0,0,0,0,0,0,0,0,0,0,0,0,0,0,0,0,0,0,0,0,0,0,0,0,0,-3.4507,-3.4507,0,-3.4526,-3.4526,-3.4526,-3.4432,-3.4429,-3.4426,-3.4424,-3.4444,-3.4447,-3.445,0,0,0,0,0,0,0,0,0,0,0,0,0,-3.4391,-3.4393,-3.4507,-3.4507,-3.4508,-3.4526,-3.4526,-3.4526,-3.4432,-3.4429,-3.4425,-3.4422,-3.4443,-3.4447,-3.445,0,0,0,0,0,0,0,0,0,0,0,0,0,-3.4429,-3.4394,-3.4507,-3.4463,-3.4459,-3.4526,-3.4526,-3.4526,-3.4433,-3.4429,-3.4425,-3.4421,-3.4442,-3.4446,-3.4451,-3.4562,0,0,-3.4465,-3.4467,0,0,0,0,0,0,0,0,-3.4427,-3.4433,-3.4469,-3.4466,-3.4462,-3.4472,-3.4492,-3.4538,-3.4434,-3.4443,-3.4423,-3.4419,-3.4457,-3.446,-3.4472,-3.4563,-3.4563,-3.4466,-3.4468,-3.447,-3.4472,0,0,0,0,0,0,0,-3.4424,-3.4432,-3.4515,-3.447,-3.4465,-3.4442,-3.4443,-3.4501,-3.4473,-3.4442,-3.4435,-3.4438,-3.4454,-3.4468,-3.4472,-3.4564,-3.4465,-3.447,-3.4472,-3.4474,-3.4745,-3.4749,0,0,0,0,0,0,-3.4427,-3.443,-3.4514,-3.4515,-3.4434,-3.4448,-3.4448,-3.4473,-3.4472,-3.4468,-3.4442,-3.4434,-3.4462,-3.4467,-3.4473,-3.4602,-3.447,-3.4475,-3.4477,-3.474,-3.4746,-3.475,0,0,0,0,0,0,-3.4425,-3.4436,-3.4513,-3.4471,-3.4479,-3.4454,-3.4482,-3.4476,-3.449,-3.4472,-3.4466,-3.4461,-3.4459,-3.4466,-3.454,-3.4601,-3.4477,-3.4481,-3.4735,-3.4742,-3.4748,-3.4862,0,0,0,0,0,0,-3.4422,-3.4435,-3.4477,-3.4472,-3.4481,-3.4581,-3.4486,-3.4479,-3.4498,-3.4487,-3.4489,-3.4485,-3.4457,-3.4534,-3.4545,-3.4606,-3.4485,-3.473,-3.4738,-3.4746,-3.4853,-3.4872,-3.4888,0,0,0,0,0,-3.4418,-3.4509,-3.448,-3.4491,-3.4533,-3.4584,-3.4589,-3.4554,-3.4503,-3.4545,-3.4533,-3.4485,-3.4593,-3.4542,-3.4553,-3.4617,-3.4726,-3.4736,-3.4745,-3.4845,-3.4868,-3.4887,0,0,0,0,0,0,-3.4523,-3.4508,-3.4475,-3.4567,-3.4577,-3.4568,-3.462,-3.458,-3.4606,-3.4595,-3.4551,-3.4552,-3.4634,-3.4632,-3.4576,-3.4723,-3.465,-3.4663,-3.4722,-3.4744,-3.4761,-3.476,-3.4488,0,0,0,0,0,-3.4556,-3.4599,-3.4583,-3.4666,-3.4672,-3.4646,-3.4666,-3.4638,-3.4648,-3.4652,-3.4646,-3.4657,-3.4693,-3.4718,-3.475,-3.4851,-3.485,-3.49,-3.4918,-3.4933,-3.4945,-3.4998,-3.502,-3.4783,-3.4783,-3.4783,0,0,-3.4626,-3.4623,-3.4653,-3.4686,-3.4691,-3.4736,-3.465,-3.4701,-3.4735,-3.466,-3.4729,-3.4725,-3.4734,-3.4822,-3.4861,-3.4824,-3.5009,-3.4945,-3.4957,-3.4961,-3.501,-3.5033,-3.5053,-3.479,-3.4788,-3.4787,0,0,-3.4777,-3.4779,-3.4848,-3.4854,-3.4862,-3.4843,-3.486,-3.4856,-3.485,-3.4919,-3.4864,-3.4902,-3.4966,-3.4975,-3.4988,-3.514,-3.5097,-3.5152,-3.5245,-3.5297,-3.5316,-3.5332,-3.5387,-3.5407,-3.5164,-3.5164,-3.5164,0,-3.4863,-3.4929,-3.4888,-3.4943,-3.496,-3.4893,-3.4962,-3.497,-3.4989,-3.5002,-3.496,-3.5037,-3.5039,-3.5128,-3.5165,-3.5178,-3.5196,-3.5152,-3.5316,-3.5332,-3.5347,-3.5399,-3.542,-3.5171,-3.517,-3.5169,-3.5169,0,-3.5035,-3.5081,-3.5135,-3.5154,-3.5177,-3.5239,-3.5208,-3.5235,-3.5205,-3.519,-3.5261,-3.526,-3.5291,-3.531,-3.5281,-3.5395,-3.5372,-3.5324,-3.5249,-3.5377,-3.5425,-3.5445,-3.518,-3.5178,-3.5176,-3.5174,0,0,-3.5253,-3.5248,-3.5269,-3.5276,-3.528,-3.5315,-3.5373,-3.5403,-3.5427,-3.5442,-3.549,-3.5545,-3.55,-3.5515,-3.5486,-3.5532,-3.5654,-3.5478,-3.5478,-3.5512,-3.5779,-3.5816,-3.584,-3.5624,-3.5628,-3.5631,-3.5779,0,-3.5401,-3.5501,-3.5466,-3.5568,-3.561,-3.5547,-3.5598,-3.5605,-3.5593,-3.5627,-3.5614,-3.5653,-3.5591,-3.5599,-3.5642,-3.563,-3.5707,-3.5619,-3.567,-3.5672,-3.567,-3.5865,-3.5904,-3.6044,-3.5797,-3.58,-3.5802,0,-3.5588,-3.5609,-3.5716,-3.5711,-3.5727,-3.5774,-3.5798,-3.5831,-3.5838,-3.5826,-3.5842,-3.5803,-3.586,-3.5785,-3.5864,-3.5804,-3.5823,-3.582,-3.5824,-3.5829,-3.5746,-3.5875,-3.6087,-3.6109,-3.5832,-3.5829,-3.5827,0,-3.5738,-3.5793,-3.5864,-3.5872,-3.5868,-3.5902,-3.5903,-3.5905,-3.5925,-3.5946,-3.5958,-3.5986,-3.6001,-3.6023,-3.5993,-3.5941,-3.6076,-3.5998,-3.6068,-3.6069,-3.6101,-3.6099,-3.632,-3.6111,-3.6111,-3.611,-3.611,0,-3.5907,-3.5975,-3.5931,-3.5975,-3.6048,-3.6006,-3.6081,-3.6074,-3.6077,-3.6118,-3.6064,-3.6104,-3.6061,-3.6097,-3.6073,-3.6142,-3.6149,-3.6141,-3.6134,-3.6147,-3.6148,-3.6159,-3.6149,-3.6116,-3.6115,-3.6114,-3.6113,0,-3.6088,-3.6061,-3.6134,-3.6124,-3.6122,-3.6178,-3.6169,-3.6209,-3.6192,-3.6245,-3.6255,-3.6229,-3.6269,-3.624,-3.6279,-3.6263,-3.6354,-3.6333,-3.6352,-3.6346,-3.6418,-3.6412,-3.6654,-3.6684,-3.6456,-3.6458,-3.646,0,-3.6199,-3.6249,-3.6244,-3.6267,-3.6271,-3.6309,-3.6329,-3.6289,-3.6312,-3.6323,-3.6362,-3.6396,-3.6422,-3.6488,-3.6473,-3.6502,-3.6482,-3.6565,-3.6486,-3.6497,-3.6484,-3.6482,-3.6487,-3.6581,-3.6584,-3.6586,-3.6588,0,-3.6398,-3.6382,-3.6412,-3.6437,-3.6462,-3.648,-3.6494,-3.6517,-3.6476,-3.6504,-3.6543,-3.6563,-3.6602,-3.6638,-3.6661,-3.6661,-3.6619,-3.6613,-3.663,-3.6644,-3.6653,-3.665,-3.6396,-3.6608,-3.6606,-3.6604,-3.6603,-3.6602,-3.6547,-3.6589,-3.6592,-3.6627,-3.6633,-3.6647,-3.6684,-3.6672,-3.6703,-3.6732,-3.6706,-3.6753,-3.6758,-3.6786,-3.6791,-3.6827,-3.6793,-3.6819,-3.6826,-3.6833,-3.6844,-3.6646,-3.6831,-3.6831,-3.683,-3.683,-3.6829,0,-3.6745,-3.6743,-3.6776,-3.6796,-3.6824,-3.678,-3.6793,-3.6819,-3.6861,-3.6869,-3.6894,-3.6939,-3.6973,-3.696,-3.6989,-3.7021,-3.7002,-3.703,-3.7028,-3.7029,-3.6872,-3.6854,-3.7045,-3.7045,-3.7045,-3.7045,-3.7045,-3.7045,-3.6851,-3.6919,-3.6903,-3.6974,-3.6971,-3.7017,-3.7028,-3.704,-3.7046,-3.7098,-3.7126,-3.7116,-3.7116,-3.7145,-3.7173,-3.7169,-3.7182,-3.7218,-3.7207,-3.7061,-3.704,-3.7019,-3.7002,-3.7221,-3.7221,-3.736,-3.7361,-3.7362]},{"header":{"parameterUnit":"m.s-1","parameterCategory":1,"la1":30.2991,"la2":30.254,"lo1":-89.0895,"lo2":-89.0444,"dy":0.0017,"dx":0.0017,"nx":28,"ny":28,"refTime":"2023-11-12T03:00:00:Z","depth":0,"parameterNumber":3,"parameterNumberName":"V-component_of_WINDS"},"data":[0,0,0,0,0,0,0,0,0,0,0,0,0,0,0,0,0,0,0,0,0,0,0,0,0,0,0,0,0,0,0,0,0,0,0,0,0,0,0,0,0,0,0,0,0,0,0,0,0,0,0,0,0,0,0,0,0,0,-4.7769,-4.777,0,-4.7794,-4.7794,-4.7794,-4.774,-4.7738,-4.7737,-4.7735,-4.7757,-4.7759,-4.7762,0,0,0,0,0,0,0,0,0,0,0,0,0,-4.7673,-4.7675,-4.7769,-4.777,-4.777,-4.7794,-4.7794,-4.7794,-4.774,-4.7738,-4.7736,-4.7734,-4.7757,-4.7759,-4.7762,0,0,0,0,0,0,0,0,0,0,0,0,0,-4.7708,-4.7675,-4.7769,-4.7746,-4.7744,-4.7793,-4.7794,-4.7794,-4.7741,-4.7738,-4.7736,-4.7733,-4.7756,-4.7759,-4.7762,-4.7835,0,0,-4.7772,-4.7774,0,0,0,0,0,0,0,0,-4.7706,-4.7711,-4.7749,-4.7748,-4.7746,-4.7761,-4.7768,-4.7808,-4.7741,-4.7742,-4.7735,-4.7732,-4.776,-4.7763,-4.7773,-4.7836,-4.7837,-4.7773,-4.7775,-4.7776,-4.7777,0,0,0,0,0,0,0,-4.7703,-4.771,-4.7779,-4.775,-4.7748,-4.7733,-4.7735,-4.7775,-4.7765,-4.7742,-4.7738,-4.7742,-4.7759,-4.777,-4.7774,-4.7837,-4.7772,-4.7775,-4.7777,-4.7779,-4.7958,-4.7961,0,0,0,0,0,0,-4.7704,-4.7708,-4.7778,-4.7779,-4.7719,-4.7737,-4.7739,-4.7759,-4.7765,-4.7763,-4.7744,-4.7739,-4.7766,-4.777,-4.7774,-4.7858,-4.7776,-4.7779,-4.7781,-4.7955,-4.7959,-4.7962,0,0,0,0,0,0,-4.7702,-4.7711,-4.7777,-4.7743,-4.775,-4.7741,-4.7764,-4.7761,-4.7772,-4.7766,-4.7764,-4.7757,-4.7764,-4.7769,-4.782,-4.7858,-4.7781,-4.7784,-4.7952,-4.7956,-4.796,-4.8028,0,0,0,0,0,0,-4.77,-4.7711,-4.7739,-4.7744,-4.7752,-4.7824,-4.7766,-4.7763,-4.7778,-4.7772,-4.7779,-4.7777,-4.7762,-4.7815,-4.7823,-4.7861,-4.7786,-4.7948,-4.7954,-4.7959,-4.8022,-4.8034,-4.8044,0,0,0,0,0,-4.7697,-4.7757,-4.7741,-4.7749,-4.7788,-4.7826,-4.783,-4.7813,-4.7781,-4.7809,-4.7805,-4.7777,-4.7853,-4.7821,-4.7829,-4.7869,-4.7946,-4.7952,-4.7958,-4.8017,-4.8031,-4.8044,0,0,0,0,0,0,-4.7756,-4.7757,-4.7739,-4.7803,-4.7815,-4.7817,-4.7851,-4.7829,-4.7849,-4.7843,-4.7819,-4.7821,-4.7876,-4.7877,-4.7842,-4.7939,-4.7894,-4.7902,-4.7936,-4.7949,-4.796,-4.7958,-4.7789,0,0,0,0,0,-4.7777,-4.7809,-4.7807,-4.7864,-4.7871,-4.786,-4.7876,-4.7862,-4.7873,-4.7877,-4.7877,-4.7888,-4.7914,-4.7932,-4.7956,-4.8022,-4.8022,-4.8054,-4.8065,-4.8073,-4.8081,-4.8115,-4.8128,-4.7982,-4.7982,-4.7982,0,0,-4.7819,-4.7824,-4.7846,-4.7876,-4.7883,-4.7916,-4.7865,-4.7901,-4.7925,-4.7882,-4.793,-4.793,-4.7941,-4.7999,-4.8025,-4.8002,-4.8121,-4.8081,-4.8089,-4.8091,-4.8123,-4.8136,-4.8149,-4.7986,-4.7986,-4.7985,0,0,-4.7914,-4.7921,-4.7968,-4.7977,-4.7989,-4.7981,-4.7993,-4.7998,-4.7996,-4.8044,-4.8012,-4.8039,-4.8085,-4.8094,-4.8104,-4.8201,-4.8175,-4.8209,-4.8266,-4.8299,-4.8311,-4.8321,-4.8354,-4.8367,-4.8217,-4.8217,-4.8217,0,-4.7965,-4.8014,-4.7995,-4.8034,-4.8048,-4.8011,-4.8058,-4.8067,-4.8086,-4.8096,-4.807,-4.8126,-4.8131,-4.819,-4.8214,-4.8224,-4.8235,-4.8208,-4.8311,-4.8321,-4.833,-4.8361,-4.8374,-4.8221,-4.822,-4.822,-4.8219,0,-4.8076,-4.811,-4.8146,-4.8166,-4.8184,-4.8227,-4.8213,-4.8233,-4.8217,-4.8212,-4.826,-4.8264,-4.8287,-4.8301,-4.8285,-4.8358,-4.8343,-4.8315,-4.8269,-4.8348,-4.8377,-4.8389,-4.8226,-4.8225,-4.8224,-4.8223,0,0,-4.8208,-4.8217,-4.823,-4.8238,-4.8249,-4.8274,-4.8315,-4.8338,-4.8355,-4.837,-4.8402,-4.8441,-4.8415,-4.8427,-4.8412,-4.8441,-4.8516,-4.8409,-4.8409,-4.8428,-4.8595,-4.8616,-4.863,-4.8499,-4.8502,-4.8503,-4.8594,0,-4.8301,-4.8371,-4.8355,-4.8424,-4.8454,-4.842,-4.8455,-4.8464,-4.846,-4.8485,-4.848,-4.8508,-4.8471,-4.8478,-4.8506,-4.8501,-4.8549,-4.8495,-4.8528,-4.853,-4.8526,-4.8645,-4.8668,-4.8753,-4.8605,-4.8607,-4.8608,0,-4.8418,-4.8437,-4.851,-4.8514,-4.8526,-4.8558,-4.8578,-4.8602,-4.8611,-4.8606,-4.8619,-4.8598,-4.8637,-4.8591,-4.8643,-4.8607,-4.8619,-4.8619,-4.8622,-4.8624,-4.8573,-4.8649,-4.8779,-4.8792,-4.8626,-4.8625,-4.8624,0,-4.8506,-4.855,-4.8598,-4.8607,-4.8613,-4.8636,-4.864,-4.8647,-4.8662,-4.8679,-4.8688,-4.8709,-4.8721,-4.8737,-4.8722,-4.869,-4.8776,-4.8729,-4.8772,-4.8772,-4.8791,-4.879,-4.8924,-4.8801,-4.88,-4.88,-4.88,0,-4.8611,-4.8656,-4.8638,-4.8668,-4.8717,-4.8697,-4.8746,-4.8746,-4.8752,-4.878,-4.8752,-4.8778,-4.8757,-4.8782,-4.877,-4.8814,-4.882,-4.8816,-4.8812,-4.8818,-4.8819,-4.8826,-4.8819,-4.8804,-4.8803,-4.8802,-4.8802,0,-4.8718,-4.8708,-4.8758,-4.876,-4.8761,-4.8797,-4.8799,-4.8825,-4.8819,-4.8855,-4.8862,-4.8852,-4.888,-4.8866,-4.8895,-4.8887,-4.8944,-4.8933,-4.8941,-4.8938,-4.898,-4.8976,-4.9123,-4.914,-4.9007,-4.9008,-4.901,0,-4.8785,-4.8819,-4.8824,-4.8841,-4.8847,-4.8875,-4.889,-4.8872,-4.8888,-4.8901,-4.8927,-4.8952,-4.8971,-4.9016,-4.9011,-4.9032,-4.902,-4.907,-4.9023,-4.9028,-4.902,-4.9018,-4.902,-4.9079,-4.9081,-4.9082,-4.9083,0,-4.8904,-4.8897,-4.8921,-4.8942,-4.8961,-4.8977,-4.899,-4.9005,-4.8987,-4.9007,-4.9035,-4.905,-4.9079,-4.9104,-4.9123,-4.9125,-4.9101,-4.9098,-4.9109,-4.9115,-4.9118,-4.9116,-4.8966,-4.9095,-4.9094,-4.9093,-4.9092,-4.9092,-4.8992,-4.9021,-4.9029,-4.9055,-4.9063,-4.9076,-4.9101,-4.9098,-4.9121,-4.9144,-4.9132,-4.9164,-4.9171,-4.9194,-4.9199,-4.9224,-4.9204,-4.922,-4.9223,-4.9227,-4.9233,-4.9115,-4.9227,-4.9227,-4.9227,-4.9226,-4.9226,0,-4.911,-4.9113,-4.9138,-4.9157,-4.9178,-4.9154,-4.9167,-4.9186,-4.9215,-4.9224,-4.9243,-4.9275,-4.9299,-4.9295,-4.9317,-4.9337,-4.9326,-4.9343,-4.9341,-4.9342,-4.925,-4.9238,-4.9351,-4.9351,-4.9351,-4.9351,-4.9351,-4.9351,-4.9173,-4.9219,-4.9213,-4.9262,-4.9265,-4.9297,-4.9306,-4.9317,-4.9325,-4.9361,-4.9381,-4.9379,-4.9383,-4.9404,-4.9424,-4.9423,-4.9431,-4.9452,-4.9446,-4.9361,-4.9348,-4.9336,-4.9325,-4.9454,-4.9455,-4.9536,-4.9536,-4.9537]}]]